Location: Smoky Mountain Stargaze
(35.4252°N, 83.3329°W)
Time: 07:49:29
(UTC-04:00)

Amateur Radio Satellites - All Passes

Search period start: 30 September 2014 07:19
Search period end: 01 October 2014 07:19
Location: Smoky Mountain Stargaze, 35.4252°N, 83.3329°W

Satellite Date Start Highest point End Downlink Frequencies (MHz)
Time Altitude Azimuth
MaSat-1 30 Sep 07:41:09 07:44:44 20° 302° (WNW) 07:48:13 437.345 MHz
AO-7 30 Sep 07:44:42 07:50:54 24° 302° (WNW) 07:57:06 29.400 - 29.500 MHz
SO-67 30 Sep 08:10:35 08:13:42 31° 98° (E) 08:16:48 435.3500 MHz FM
UOSAT-12 30 Sep 08:13:51 08:17:53 29° 248° (WSW) 08:21:50 437.025 FM, 437.400 FM
Hamsat 30 Sep 08:24:37 08:27:35 19° 291° (WNW) 08:30:32 145.90 MHz
RS-15 30 Sep 08:26:38 08:30:13 12° 3° (N) 08:33:48 29.354 - 29.394 USB, Beacon 29.352 USB
STRAND 1 30 Sep 08:36:43 08:40:47 24° 264° (W) 08:44:53 ?
JAS-2 30 Sep 08:51:44 08:56:37 22° 295° (WNW) 09:01:52 435.800 - 435.900 CW/SSB, 435.910 FM
HO-68 30 Sep 09:23:55 09:29:05 21° 94° (E) 09:34:14 435.675 MHz FM
Sapphire 30 Sep 09:29:29 09:33:42 24° 106° (ESE) 09:37:55 437.095 MHz 1200 baud AX-25 AFSK
SO-67 30 Sep 09:45:11 09:46:23 12° 291° (WNW) 09:47:34 435.3500 MHz FM
PCSat 30 Sep 09:54:07 09:59:13 45° 111° (ESE) 10:04:21 145.825 MHz
Oscar 11 30 Sep 10:37:57 10:41:37 27° 96° (E) 10:45:16 145.825 FM, Beacon 2401.500 USB
RS-15 30 Sep 10:39:30 10:48:27 27° 39° (NE) 10:57:36 29.354 - 29.394 USB, Beacon 29.352 USB
FUNcube-1 30 Sep 11:00:05 11:03:22 20° 94° (E) 11:06:36 145.950 - 145.970 MHz USB
UKube-1 30 Sep 11:05:57 11:10:19 76° 102° (ESE) 11:14:41 145.840 MHz, 145.915 MHz
HO-68 30 Sep 11:10:06 11:17:11 63° 289° (WNW) 11:24:14 435.675 MHz FM
Sapphire 30 Sep 11:11:46 11:16:49 40° 302° (WNW) 11:21:55 437.095 MHz 1200 baud AX-25 AFSK
PCSat 30 Sep 11:38:32 11:42:48 23° 307° (NW) 11:47:05 145.825 MHz
ZACube-1 30 Sep 11:44:06 11:48:38 65° 101° (E) 11:53:02 437.345 MHz
Oscar 11 30 Sep 12:14:19 12:17:38 22° 291° (WNW) 12:20:56 145.825 FM, Beacon 2401.500 USB
FUNcube-1 30 Sep 12:35:45 12:39:47 32° 289° (WNW) 12:43:44 145.950 - 145.970 MHz USB
RS-15 30 Sep 12:51:08 13:02:23 90° 63° (ENE) 13:14:07 29.354 - 29.394 USB, Beacon 29.352 USB
Oscar 16 30 Sep 13:08:58 13:12:11 17° 65° (ENE) 13:15:25 437.025 USB, Beacon 2401.1428
ZACube-1 30 Sep 13:23:23 13:24:23 11° 296° (WNW) 13:25:23 437.345 MHz
Saudisat 1A 30 Sep 13:45:23 13:47:38 14° 108° (ESE) 13:49:54 436.775 MHz
JAS-1B 30 Sep 13:54:53 14:01:47 36° 70° (ENE) 14:07:43 435.800 - 435.900 CW/SSB
Oscar 19 30 Sep 14:05:00 14:10:05 58° 74° (ENE) 14:15:11 437.125 CW, 437.150 USB
ITAMSAT 1 30 Sep 14:15:47 14:20:13 30° 69° (ENE) 14:24:41 435.822 SSB
Uribyol 2 30 Sep 14:16:42 14:21:16 33° 69° (ENE) 14:25:52 436.500 FM
Oscar 16 30 Sep 14:46:00 14:51:04 53° 260° (W) 14:56:09 437.025 USB, Beacon 2401.1428
AO-27 30 Sep 14:53:12 14:58:20 73° 75° (ENE) 15:03:31 436.795 MHz FM
AO-7 30 Sep 14:59:03 15:02:48 14° 51° (NE) 15:06:32 29.400 - 29.500 MHz
AO-Echo 30 Sep 15:01:53 15:06:34 78° 258° (WSW) 15:11:18 ?
RS-15 30 Sep 15:06:08 15:13:17 19° 259° (W) 15:20:39 29.354 - 29.394 USB, Beacon 29.352 USB
Gurwin Techsat 1B 30 Sep 15:13:50 15:18:57 53° 73° (ENE) 15:24:07 435.225 FM
Saudisat 1A 30 Sep 15:22:31 15:26:46 48° 303° (WNW) 15:31:03 436.775 MHz
TMSAT-1 30 Sep 15:42:49 15:48:04 74° 75° (ENE) 15:53:22 436.925 FM
JAS-1B 30 Sep 15:45:02 15:52:17 37° 260° (W) 15:58:31 435.800 - 435.900 CW/SSB
Oscar 19 30 Sep 15:47:05 15:49:45 14° 268° (W) 15:52:25 437.125 CW, 437.150 USB
ITAMSAT 1 30 Sep 15:55:14 15:59:37 28° 263° (W) 16:04:03 435.822 SSB
Uribyol 2 30 Sep 15:56:28 16:00:43 26° 264° (W) 16:05:00 436.500 FM
MaSat-1 30 Sep 15:58:33 16:01:31 31° 61° (ENE) 16:04:08 437.345 MHz
Uosat F 30 Sep 16:23:10 16:27:21 28° 69° (ENE) 16:31:33 435.120 FM
AO-27 30 Sep 16:37:06 16:38:18 11° 269° (W) 16:39:31 436.795 MHz FM
AO-7 30 Sep 16:45:54 16:54:08 72° 70° (ENE) 17:02:23 29.400 - 29.500 MHz
Gurwin Techsat 1B 30 Sep 16:56:00 16:59:11 16° 267° (W) 17:02:24 435.225 FM
JAS-2 30 Sep 17:18:14 17:21:04 15° 63° (ENE) 17:23:59 435.800 - 435.900 CW/SSB, 435.910 FM
TMSAT-1 30 Sep 17:27:07 17:28:28 11° 269° (W) 17:29:49 436.925 FM
Hamsat 30 Sep 17:39:35 17:42:11 16° 68° (ENE) 17:44:47 145.90 MHz
KITSAT 1 30 Sep 17:43:28 17:51:28 70° 114° (ESE) 17:59:30 435.175 FM
Uosat F 30 Sep 18:01:45 18:06:01 28° 263° (W) 18:10:19 435.120 FM
OPAL 30 Sep 18:09:51 18:14:45 47° 102° (ESE) 18:19:33 ?
Sapphire 30 Sep 18:21:30 18:23:33 12° 46° (NE) 18:25:36 437.095 MHz 1200 baud AX-25 AFSK
Oscar 10/S400 30 Sep 18:28:44 18:47:31 67° 167° (SSE) 19:59:54 145.825 - 145.975 CW/USB, Beacon 145.810 USB
AO-7 30 Sep 18:41:38 18:47:28 21° 266° (W) 18:53:22 29.400 - 29.500 MHz
PCSat 30 Sep 18:45:41 18:49:42 21° 52° (NE) 18:53:41 145.825 MHz
JAS-2 30 Sep 19:00:36 19:05:38 55° 260° (W) 19:10:51 435.800 - 435.900 CW/SSB, 435.910 FM
STRAND 1 30 Sep 19:12:03 19:14:48 14° 93° (E) 19:17:31 ?
Hamsat 30 Sep 19:13:44 19:17:47 39° 262° (W) 19:21:51 145.90 MHz
KITSAT 1 30 Sep 19:40:57 19:47:30 26° 313° (NW) 19:54:05 435.175 FM
OPAL 30 Sep 19:49:48 19:53:13 18° 297° (WNW) 19:56:36 ?
HO-68 30 Sep 19:52:56 19:55:17 12° 55° (NE) 19:57:37 435.675 MHz FM
PANSAT 30 Sep 20:00:04 20:02:18 15° 162° (SSE) 20:04:32 not established
Sapphire 30 Sep 20:02:20 20:07:47 84° 64° (ENE) 20:13:12 437.095 MHz 1200 baud AX-25 AFSK
SO-50 30 Sep 20:11:06 20:15:33 84° 300° (WNW) 20:20:08 436.795 FM
SO-67 30 Sep 20:12:48 20:16:10 54° 260° (W) 20:19:34 435.3500 MHz FM
PCSat 30 Sep 20:28:09 20:33:24 52° 248° (WSW) 20:38:37 145.825 MHz
UOSAT-12 30 Sep 20:43:25 20:46:12 16° 108° (ESE) 20:49:01 437.025 FM, 437.400 FM
STRAND 1 30 Sep 20:49:14 20:54:17 56° 287° (WNW) 20:59:18 ?
ISS 30 Sep 21:29:44 21:30:56 12° 126° (SE) 21:32:08 145.800 FM
Oscar 11 30 Sep 21:31:07 21:33:43 16° 67° (ENE) 21:36:19 145.825 FM, Beacon 2401.500 USB
HO-68 30 Sep 21:34:39 21:41:44 73° 72° (ENE) 21:48:52 435.675 MHz FM
PANSAT 30 Sep 21:38:39 21:41:56 27° 174° (S) 21:45:14 not established
FUNcube-1 30 Sep 21:55:05 21:56:50 12° 65° (ENE) 21:58:36 145.950 - 145.970 MHz USB
SO-50 30 Sep 21:56:32 21:56:51 10° 318° (NW) 21:57:09 436.795 FM
UKube-1 30 Sep 21:58:27 22:02:33 43° 73° (ENE) 22:06:40 145.840 MHz, 145.915 MHz
UOSAT-12 30 Sep 22:21:27 22:25:54 47° 304° (WNW) 22:30:27 437.025 FM, 437.400 FM
ZACube-1 30 Sep 22:37:27 22:41:34 36° 72° (ENE) 22:45:46 437.345 MHz
ISS 30 Sep 23:03:59 23:07:15 55° 320° (NW) 23:10:32 145.800 FM
Oscar 11 30 Sep 23:05:27 23:09:32 40° 261° (W) 23:13:39 145.825 FM, Beacon 2401.500 USB
PANSAT 30 Sep 23:18:26 23:21:41 26° 187° (S) 23:24:56 not established
HO-68 30 Sep 23:25:31 23:29:58 17° 267° (W) 23:34:27 435.675 MHz FM
FUNcube-1 30 Sep 23:28:12 23:32:38 59° 260° (W) 23:37:11 145.950 - 145.970 MHz USB
UKube-1 30 Sep 23:36:46 23:38:55 14° 267° (W) 23:41:04 145.840 MHz, 145.915 MHz
Saudisat 1A 30 Sep 23:51:54 23:56:14 52° 58° (ENE) 00:00:32 436.775 MHz
AO-40 01 Oct 00:12:20 01:42:20 23° 231° (SW) 04:33:35 Beacon 2401.320
ZACube-1 01 Oct 00:14:57 00:18:03 18° 267° (W) 00:21:11 437.345 MHz
ISS 01 Oct 00:44:17 00:44:33 10° 338° (NNW) 00:44:50 145.800 FM
PANSAT 01 Oct 00:59:21 01:01:18 14° 199° (SSW) 01:03:15 not established
RS-15 01 Oct 01:05:03 01:10:36 15° 99° (E) 01:16:05 29.354 - 29.394 USB, Beacon 29.352 USB
Saudisat 1A 01 Oct 01:33:21 01:35:19 13° 252° (WSW) 01:37:17 436.775 MHz
KITSAT 1 01 Oct 01:41:04 01:46:59 22° 44° (NE) 01:52:51 435.175 FM
Oscar 19 01 Oct 02:20:22 02:24:38 26° 96° (E) 02:28:52 437.125 CW, 437.150 USB
ITAMSAT 1 01 Oct 02:33:11 02:35:38 13° 92° (E) 02:38:05 435.822 SSB
Uribyol 2 01 Oct 02:33:46 02:36:38 15° 93° (E) 02:39:28 436.500 FM
Oscar 16 01 Oct 03:00:44 03:05:54 71° 102° (ESE) 03:10:59 437.025 USB, Beacon 2401.1428
AO-27 01 Oct 03:09:42 03:14:24 33° 98° (E) 03:19:05 436.795 MHz FM
RS-15 01 Oct 03:10:06 03:21:11 82° 116° (ESE) 03:32:07 29.354 - 29.394 USB, Beacon 29.352 USB
AO-Echo 01 Oct 03:11:46 03:16:35 43° 99° (E) 03:21:30 ?
JAS-1B 01 Oct 03:31:59 03:37:43 72° 103° (ESE) 03:44:02 435.800 - 435.900 CW/SSB
Gurwin Techsat 1B 01 Oct 03:33:38 03:38:07 27° 96° (E) 03:42:34 435.225 FM
KITSAT 1 01 Oct 03:35:16 03:43:22 87° 244° (WSW) 03:51:26 435.175 FM
Oscar 19 01 Oct 03:59:26 04:03:55 31° 291° (WNW) 04:08:23 437.125 CW, 437.150 USB
TMSAT-1 01 Oct 04:02:04 04:06:59 38° 98° (E) 04:11:52 436.925 FM
ITAMSAT 1 01 Oct 04:10:19 04:15:29 62° 286° (WNW) 04:20:37 435.822 SSB
Uribyol 2 01 Oct 04:11:17 04:16:24 56° 287° (WNW) 04:21:30 436.500 FM
Uosat F 01 Oct 04:37:02 04:37:26 10° 91° (E) 04:37:50 435.120 FM
Oscar 16 01 Oct 04:42:30 04:44:35 12° 297° (WNW) 04:46:39 437.025 USB, Beacon 2401.1428
SO-50 01 Oct 04:45:36 04:50:08 39° 55° (NE) 04:54:41 436.795 FM
AO-27 01 Oct 04:49:28 04:53:44 26° 292° (WNW) 04:57:59 436.795 MHz FM
AO-Echo 01 Oct 04:51:27 04:55:01 20° 293° (WNW) 04:58:38 ?
AO-7 01 Oct 04:51:47 04:58:39 28° 97° (E) 05:05:29 29.400 - 29.500 MHz
Gurwin Techsat 1B 01 Oct 05:13:22 05:18:02 32° 291° (WNW) 05:22:41 435.225 FM
OPAL 01 Oct 05:21:29 05:26:36 61° 72° (ENE) 05:31:45 ?
JAS-1B 01 Oct 05:25:20 05:27:51 13° 298° (WNW) 05:30:25 435.800 - 435.900 CW/SSB
RS-15 01 Oct 05:25:45 05:34:47 29° 320° (NW) 05:43:52 29.354 - 29.394 USB, Beacon 29.352 USB
KITSAT 1 01 Oct 05:33:49 05:37:35 14° 260° (W) 05:41:21 435.175 FM
ISS 01 Oct 05:35:10 05:38:20 41° 38° (NE) 05:41:30 145.800 FM
MaSat-1 01 Oct 05:37:59 05:42:19 33° 107° (ESE) 05:46:33 437.345 MHz
TMSAT-1 01 Oct 05:42:30 05:46:38 24° 293° (WNW) 05:50:46 436.925 FM
JAS-2 01 Oct 06:11:24 06:16:57 25° 95° (E) 06:22:53 435.800 - 435.900 CW/SSB, 435.910 FM
Uosat F 01 Oct 06:11:38 06:16:40 74° 285° (WNW) 06:21:41 435.120 FM
STRAND 1 01 Oct 06:25:21 06:28:25 16° 65° (ENE) 06:31:29 ?
SO-50 01 Oct 06:26:46 06:30:27 22° 250° (WSW) 06:34:08 436.795 FM
AO-7 01 Oct 06:43:41 06:51:42 57° 293° (WNW) 06:59:44 29.400 - 29.500 MHz
UOSAT-12 01 Oct 06:53:48 06:58:29 62° 58° (ENE) 07:03:04 437.025 FM, 437.400 FM
Hamsat 01 Oct 07:02:22 07:06:22 43° 99° (E) 07:10:20 145.90 MHz
OPAL 01 Oct 07:03:13 07:05:49 14° 266° (W) 07:08:25 ?
ISS 01 Oct 07:12:42 07:14:46 16° 232° (SW) 07:16:49 145.800 FM
